• In Kazakhstan
  • List of Countries
  • For 7 days
  • Water Temperature
  • Satellite Maps
  • Weather Map
  • News
  • Weather Widgets
  • user-avatar
    Login

    Hourly Weather Belek

    Today, 21 November, Tuesday

    Time Temperature Precipitation Wind Pressure Humidity
    00:00 +15°C° 0.5 mm 9 mps 753 mmHg 70%
    01:00 +13°C° 0.5 mm 9 mps 753 mmHg 64%
    02:00 +13°C° 0.5 mm 8 mps 753 mmHg 57%
    03:00 +12°C° 0 mm 9 mps 754 mmHg 58%
    04:00 +11°C° 0 mm 9 mps 754 mmHg 59%
    05:00 +11°C° 0 mm 9 mps 755 mmHg 59%
    06:00 +11°C° 0 mm 9 mps 755 mmHg 58%
    07:00 +11°C° 0 mm 9 mps 756 mmHg 56%
    08:00 +11°C° 0 mm 9 mps 757 mmHg 55%
    09:00 +12°C° 0 mm 9 mps 757 mmHg 50%
    10:00 +13°C° 0 mm 9 mps 757 mmHg 45%
    11:00 +15°C° 0 mm 9 mps 758 mmHg 40%
    12:00 +15°C° 0 mm 9 mps 758 mmHg 38%
    13:00 +15°C° 0 mm 9 mps 758 mmHg 37%
    14:00 +15°C° 0 mm 9 mps 758 mmHg 36%
    15:00 +13°C° 0 mm 9 mps 759 mmHg 39%
    16:00 +12°C° 0 mm 9 mps 759 mmHg 42%
    17:00 +11°C° 0 mm 9 mps 760 mmHg 44%
    18:00 +11°C° 0 mm 9 mps 760 mmHg 45%
    19:00 +10°C° 0 mm 8 mps 761 mmHg 46%
    20:00 +10°C° 0 mm 8 mps 761 mmHg 48%
    21:00 +10°C° 0 mm 8 mps 761 mmHg 47%
    22:00 +9°C° 0 mm 8 mps 762 mmHg 47%
    23:00 +9°C° 0 mm 8 mps 762 mmHg 47%

    Tomorrow, 22 November, Wednesday

    Time Temperature Precipitation Wind Pressure Humidity
    00:00 +9°C° 0 mm 8 mps 762 mmHg 46%
    01:00 +9°C° 0 mm 8 mps 762 mmHg 45%
    02:00 +9°C° 0 mm 8 mps 762 mmHg 44%
    03:00 +7°C° 0 mm 8 mps 762 mmHg 44%
    04:00 +7°C° 0 mm 8 mps 762 mmHg 44%
    05:00 +7°C° 0 mm 8 mps 762 mmHg 43%
    06:00 +9°C° 0 mm 7 mps 763 mmHg 42%
    07:00 +9°C° 0 mm 7 mps 763 mmHg 41%
    08:00 +10°C° 0 mm 7 mps 763 mmHg 39%
    09:00 +11°C° 0 mm 7 mps 763 mmHg 35%
    10:00 +14°C° 0 mm 6 mps 763 mmHg 30%
    11:00 +15°C° 0 mm 6 mps 763 mmHg 26%
    12:00 +16°C° 0 mm 5 mps 763 mmHg 26%
    13:00 +16°C° 0 mm 5 mps 763 mmHg 26%
    14:00 +18°C° 0 mm 4 mps 762 mmHg 25%
    15:00 +17°C° 0 mm 4 mps 763 mmHg 29%
    16:00 +14°C° 0 mm 4 mps 763 mmHg 34%
    17:00 +13°C° 0 mm 3 mps 763 mmHg 38%
    18:00 +13°C° 0 mm 4 mps 763 mmHg 39%
    19:00 +12°C° 0 mm 4 mps 764 mmHg 40%
    20:00 +12°C° 0 mm 4 mps 764 mmHg 42%
    21:00 +12°C° 0 mm 4 mps 764 mmHg 42%
    22:00 +11°C° 0 mm 4 mps 764 mmHg 43%
    23:00 +11°C° 0 mm 4 mps 764 mmHg 43%

    Day after tomorrow, 23 November, Thursday

    Time Temperature Precipitation Wind Pressure Humidity
    00:00 +11°C° 0 mm 3 mps 764 mmHg 44%
    01:00 +11°C° 0 mm 3 mps 764 mmHg 45%
    02:00 +11°C° 0 mm 3 mps 764 mmHg 45%
    03:00 +11°C° 0 mm 3 mps 764 mmHg 46%
    04:00 +11°C° 0 mm 3 mps 764 mmHg 47%
    05:00 +11°C° 0 mm 3 mps 764 mmHg 47%
    06:00 +13°C° 0 mm 2 mps 764 mmHg 47%
    07:00 +13°C° 0 mm 2 mps 764 mmHg 47%
    08:00 +14°C° 0 mm 2 mps 765 mmHg 47%
    09:00 +15°C° 0 mm 2 mps 764 mmHg 44%
    10:00 +17°C° 0 mm 2 mps 764 mmHg 40%
    11:00 +18°C° 0 mm 2 mps 764 mmHg 37%
    12:00 +19°C° 0 mm 2 mps 764 mmHg 38%
    13:00 +19°C° 0 mm 2 mps 763 mmHg 39%
    14:00 +20°C° 0 mm 2 mps 763 mmHg 40%
    15:00 +18°C° 0 mm 2 mps 763 mmHg 46%
    16:00 +17°C° 0 mm 3 mps 763 mmHg 52%
    17:00 +16°C° 0 mm 3 mps 763 mmHg 58%
    18:00 +16°C° 0 mm 3 mps 763 mmHg 57%
    19:00 +14°C° 0 mm 3 mps 764 mmHg 57%
    20:00 +15°C° 0 mm 2 mps 764 mmHg 56%
    21:00 +14°C° 0 mm 3 mps 764 mmHg 55%
    22:00 +14°C° 0 mm 3 mps 765 mmHg 54%
    23:00 +14°C° 0 mm 3 mps 765 mmHg 54%

    24 November, Friday

    Time Temperature Precipitation Wind Pressure Humidity
    00:00 +14°C° 0 mm 3 mps 765 mmHg 53%
    01:00 +13°C° 0 mm 4 mps 764 mmHg 53%
    02:00 +13°C° 0 mm 4 mps 764 mmHg 52%
    03:00 +13°C° 0 mm 4 mps 764 mmHg 51%
    04:00 +13°C° 0 mm 4 mps 764 mmHg 51%
    05:00 +13°C° 0 mm 4 mps 764 mmHg 50%
    06:00 +13°C° 0 mm 4 mps 765 mmHg 49%
    07:00 +14°C° 0 mm 4 mps 765 mmHg 47%
    08:00 +14°C° 0 mm 4 mps 765 mmHg 46%
    09:00 +17°C° 0 mm 3 mps 765 mmHg 41%
    10:00 +19°C° 0 mm 3 mps 765 mmHg 37%
    11:00 +20°C° 0 mm 2 mps 765 mmHg 32%
    12:00 +21°C° 0 mm 2 mps 764 mmHg 32%
    13:00 +21°C° 0 mm 2 mps 764 mmHg 32%
    14:00 +21°C° 0 mm 2 mps 764 mmHg 32%
    15:00 +20°C° 0 mm 2 mps 764 mmHg 39%
    16:00 +18°C° 0 mm 2 mps 764 mmHg 46%
    17:00 +17°C° 0 mm 2 mps 764 mmHg 53%
    18:00 +16°C° 0 mm 1 mps 764 mmHg 53%
    19:00 +16°C° 0 mm 1 mps 765 mmHg 53%
    20:00 +16°C° 0 mm 1 mps 765 mmHg 54%
    21:00 +16°C° 0 mm 1 mps 766 mmHg 53%
    22:00 +15°C° 0 mm 1 mps 766 mmHg 53%
    23:00 +15°C° 0 mm 2 mps 766 mmHg 52%

    25 November, Saturday

    Time Temperature Precipitation Wind Pressure Humidity
    00:00 +15°C° 0 mm 2 mps 766 mmHg 52%
    01:00 +15°C° 0 mm 2 mps 766 mmHg 51%
    02:00 +15°C° 0 mm 2 mps 766 mmHg 51%
    03:00 +14°C° 0 mm 2 mps 766 mmHg 51%
    04:00 +13°C° 0 mm 3 mps 766 mmHg 51%
    05:00 +13°C° 0 mm 3 mps 766 mmHg 51%
    06:00 +13°C° 0 mm 3 mps 766 mmHg 51%
    07:00 +14°C° 0 mm 3 mps 766 mmHg 50%
    08:00 +14°C° 0 mm 3 mps 767 mmHg 49%
    09:00 +17°C° 0 mm 3 mps 767 mmHg 45%
    10:00 +18°C° 0 mm 3 mps 767 mmHg 41%
    11:00 +20°C° 0 mm 3 mps 767 mmHg 37%
    12:00 +20°C° 0 mm 3 mps 766 mmHg 38%
    13:00 +20°C° 0 mm 3 mps 766 mmHg 39%
    14:00 +20°C° 0 mm 2 mps 766 mmHg 40%
    15:00 +19°C° 0.1 mm 2 mps 766 mmHg 46%
    16:00 +17°C° 0.1 mm 2 mps 766 mmHg 52%
    17:00 +16°C° 0.1 mm 2 mps 766 mmHg 58%
    18:00 +16°C° 0.1 mm 2 mps 766 mmHg 59%
    19:00 +15°C° 0.1 mm 2 mps 767 mmHg 60%
    20:00 +15°C° 0.1 mm 2 mps 767 mmHg 61%
    21:00 +15°C° 0.1 mm 2 mps 767 mmHg 60%
    22:00 +15°C° 0.1 mm 2 mps 767 mmHg 60%
    23:00 +14°C° 0.1 mm 2 mps 767 mmHg 60%

    26 November, Sunday

    Time Temperature Precipitation Wind Pressure Humidity
    00:00 +14°C° 0 mm 2 mps 767 mmHg 60%
    01:00 +14°C° 0 mm 2 mps 767 mmHg 60%
    02:00 +14°C° 0 mm 2 mps 767 mmHg 59%
    03:00 +14°C° 0 mm 2 mps 767 mmHg 59%
    04:00 +14°C° 0 mm 2 mps 767 mmHg 58%
    05:00 +12°C° 0 mm 3 mps 767 mmHg 58%
    06:00 +14°C° 0 mm 2 mps 767 mmHg 56%
    07:00 +14°C° 0 mm 2 mps 768 mmHg 55%
    08:00 +15°C° 0 mm 2 mps 768 mmHg 53%
    09:00 +16°C° 0 mm 2 mps 768 mmHg 48%
    10:00 +18°C° 0 mm 2 mps 767 mmHg 43%
    11:00 +19°C° 0 mm 2 mps 767 mmHg 38%
    12:00 +21°C° 0 mm 1 mps 767 mmHg 37%
    13:00 +21°C° 0 mm 1 mps 766 mmHg 37%
    14:00 +21°C° 0 mm 1 mps 766 mmHg 37%
    15:00 +20°C° 0 mm 1 mps 766 mmHg 43%
    16:00 +18°C° 0 mm 1 mps 766 mmHg 50%
    17:00 +16°C° 0 mm 1 mps 766 mmHg 56%
    18:00 +16°C° 0 mm 1 mps 767 mmHg 56%
    19:00 +15°C° 0 mm 1 mps 767 mmHg 57%
    20:00 +15°C° 0 mm 1 mps 767 mmHg 57%
    21:00 +15°C° 0 mm 1 mps 767 mmHg 56%
    22:00 +14°C° 0 mm 1 mps 767 mmHg 55%
    23:00 +14°C° 0 mm 1 mps 767 mmHg 55%
    Show more